DLH3731 EGPH-EGCC

Flight info

Callsign DLH3731
Flight time 0h 39m
Altitude 25000
Route GOSAM P600 FENIK L612 LAKEY
Aircraft A359/H-SDE2E3GHIJ3J4J5LM1ORWXY/LB1D1

Departure

Time 2026-05-07 20:21
Airport Edinburgh Airport (EGPH)

Arrival

Time 2026-05-07 21:00
Airport Manchester Airport (EGCC)
Time Latitude Longitude Altitude Speed Heading
2026-05-07 20:03 55.95022 -3.36062 122 ft 0 kts 248°
2026-05-07 20:15 55.95026 -3.36044 118 ft 2 kts 248°
2026-05-07 20:16 55.95031 -3.36018 118 ft 2 kts 248°
2026-05-07 20:16 55.95037 -3.35995 118 ft 3 kts 258°
2026-05-07 20:16 55.95037 -3.35962 118 ft 3 kts 297°
2026-05-07 20:16 55.95031 -3.35943 118 ft 0 kts 324°
2026-05-07 20:18 55.95048 -3.35966 118 ft 11 kts 322°
2026-05-07 20:18 55.95115 -3.36102 117 ft 14 kts 316°
2026-05-07 20:18 55.95187 -3.36094 118 ft 11 kts 42°
2026-05-07 20:19 55.95238 -3.35969 117 ft 14 kts 57°
2026-05-07 20:19 55.95296 -3.35804 122 ft 17 kts 58°
2026-05-07 20:19 55.95365 -3.35605 117 ft 20 kts 59°
2026-05-07 20:19 55.95416 -3.35464 117 ft 0 kts 46°
2026-05-07 20:20 55.95454 -3.35434 117 ft 16 kts
2026-05-07 20:20 55.95559 -3.35587 116 ft 18 kts 258°
2026-05-07 20:20 55.95522 -3.35716 115 ft 18 kts 239°
2026-05-07 20:20 55.95509 -3.35753 115 ft 1 kts 239°
2026-05-07 20:21 55.95367 -3.36169 113 ft 79 kts 238°
2026-05-07 20:21 55.94953 -3.37357 116 ft 145 kts 236°
2026-05-07 20:21 55.94411 -3.38979 738 ft 150 kts 237°
2026-05-07 20:21 55.93728 -3.41117 1775 ft 159 kts 233°
2026-05-07 20:22 55.93307 -3.42299 2108 ft 177 kts 233°
2026-05-07 20:22 55.92601 -3.44251 2684 ft 198 kts 234°
2026-05-07 20:22 55.91822 -3.46458 3197 ft 222 kts 236°
2026-05-07 20:22 55.90986 -3.48877 3898 ft 234 kts 238°
2026-05-07 20:23 55.90361 -3.51599 4742 ft 242 kts 254°
2026-05-07 20:23 55.90029 -3.54592 5505 ft 249 kts 258°
2026-05-07 20:23 55.89745 -3.57606 5903 ft 251 kts 258°
2026-05-07 20:23 55.89454 -3.60686 6007 ft 253 kts 258°
2026-05-07 20:24 55.89155 -3.63775 6001 ft 253 kts 258°
2026-05-07 20:24 55.88854 -3.66869 5992 ft 254 kts 258°
2026-05-07 20:24 55.88548 -3.69964 5999 ft 254 kts 258°
2026-05-07 20:24 55.88235 -3.73065 5996 ft 254 kts 257°
2026-05-07 20:25 55.87921 -3.76163 6000 ft 254 kts 257°
2026-05-07 20:25 55.87608 -3.79257 5994 ft 254 kts 257°
2026-05-07 20:25 55.87301 -3.82365 5998 ft 255 kts 258°
2026-05-07 20:25 55.86992 -3.85473 5998 ft 254 kts 257°
2026-05-07 20:26 55.86682 -3.88584 6002 ft 255 kts 257°
2026-05-07 20:26 55.86375 -3.91650 6004 ft 255 kts 257°
2026-05-07 20:26 55.86064 -3.94760 6004 ft 255 kts 258°
2026-05-07 20:26 55.85753 -3.97862 5996 ft 255 kts 257°
2026-05-07 20:27 55.85440 -4.00968 5992 ft 254 kts 257°
2026-05-07 20:27 55.85114 -4.04057 5992 ft 254 kts 255°
2026-05-07 20:27 55.84604 -4.07047 5992 ft 252 kts 246°
2026-05-07 20:27 55.83791 -4.09786 5992 ft 251 kts 235°
2026-05-07 20:28 55.82721 -4.12232 5991 ft 250 kts 229°
2026-05-07 20:28 55.81578 -4.14562 5993 ft 250 kts 228°
2026-05-07 20:28 55.80432 -4.16884 5994 ft 250 kts 228°
2026-05-07 20:28 55.79289 -4.19175 5994 ft 250 kts 226°
2026-05-07 20:29 55.78008 -4.21254 6078 ft 249 kts 219°
2026-05-07 20:29 55.76597 -4.23148 6497 ft 252 kts 216°
2026-05-07 20:29 55.75165 -4.24900 7400 ft 254 kts 214°
2026-05-07 20:29 55.73660 -4.26530 8483 ft 255 kts 207°
2026-05-07 20:30 55.71959 -4.27497 9523 ft 261 kts 192°
2026-05-07 20:30 55.70117 -4.27429 10408 ft 274 kts 172°
2026-05-07 20:30 55.68223 -4.26344 10901 ft 300 kts 161°
2026-05-07 20:30 55.66273 -4.24672 11331 ft 324 kts 155°
2026-05-07 20:31 55.64256 -4.22626 11929 ft 340 kts 153°
2026-05-07 20:31 55.62207 -4.20436 12746 ft 347 kts 153°
2026-05-07 20:31 55.60121 -4.18216 13644 ft 352 kts 153°
2026-05-07 20:31 55.57995 -4.16009 14424 ft 357 kts 154°
2026-05-07 20:32 55.55827 -4.13819 15199 ft 361 kts 154°
2026-05-07 20:32 55.53623 -4.11638 15987 ft 365 kts 155°
2026-05-07 20:32 55.51412 -4.09477 16819 ft 369 kts 155°
2026-05-07 20:32 55.49151 -4.07281 17680 ft 373 kts 155°
2026-05-07 20:33 55.46863 -4.05065 18489 ft 377 kts 156°
2026-05-07 20:33 55.44547 -4.02826 19199 ft 381 kts 155°
2026-05-07 20:33 55.42194 -4.00553 19697 ft 389 kts 155°
2026-05-07 20:33 55.39811 -3.98249 20125 ft 392 kts 155°
2026-05-07 20:34 55.37413 -3.95930 20873 ft 395 kts 155°
2026-05-07 20:34 55.34995 -3.93594 21624 ft 398 kts 155°
2026-05-07 20:34 55.32555 -3.91240 22336 ft 403 kts 155°
2026-05-07 20:34 55.30114 -3.88890 23058 ft 407 kts 155°
2026-05-07 20:35 55.27609 -3.86484 23713 ft 412 kts 155°
2026-05-07 20:35 55.25082 -3.84062 24268 ft 416 kts 155°
2026-05-07 20:35 55.22531 -3.81616 24767 ft 419 kts 155°
2026-05-07 20:35 55.19965 -3.79149 24941 ft 423 kts 154°
2026-05-07 20:36 55.17332 -3.76630 24981 ft 440 kts 154°
2026-05-07 20:36 55.14589 -3.74021 24982 ft 455 kts 154°
2026-05-07 20:36 55.11804 -3.71370 24984 ft 456 kts 154°
2026-05-07 20:36 55.09019 -3.68717 24987 ft 455 kts 154°
2026-05-07 20:37 55.06242 -3.66074 24987 ft 455 kts 154°
2026-05-07 20:37 55.03462 -3.63434 24989 ft 455 kts 154°
2026-05-07 20:37 55.00682 -3.60800 24989 ft 455 kts 154°
2026-05-07 20:37 54.97946 -3.58213 24984 ft 455 kts 154°
2026-05-07 20:38 54.95170 -3.55584 24978 ft 455 kts 154°
2026-05-07 20:38 54.92388 -3.52962 24992 ft 455 kts 154°
2026-05-07 20:38 54.89601 -3.50344 24978 ft 456 kts 154°
2026-05-07 20:38 54.86804 -3.47720 24991 ft 456 kts 154°
2026-05-07 20:39 54.84013 -3.45105 24997 ft 456 kts 155°
2026-05-07 20:39 54.81220 -3.42492 24996 ft 456 kts 155°
2026-05-07 20:39 54.78428 -3.39883 24998 ft 456 kts 155°
2026-05-07 20:39 54.75631 -3.37273 25000 ft 456 kts 155°
2026-05-07 20:40 54.72839 -3.34671 25001 ft 456 kts 155°
2026-05-07 20:40 54.70032 -3.32124 24996 ft 455 kts 157°
2026-05-07 20:40 54.67158 -3.29850 25001 ft 455 kts 159°
2026-05-07 20:40 54.64239 -3.27732 25002 ft 455 kts 160°
2026-05-07 20:41 54.61311 -3.25663 25003 ft 455 kts 160°
2026-05-07 20:41 54.58386 -3.23582 25004 ft 455 kts 160°
2026-05-07 20:41 54.55463 -3.21469 24997 ft 455 kts 160°
2026-05-07 20:41 54.52580 -3.19356 25005 ft 456 kts 159°
2026-05-07 20:42 54.49667 -3.17200 25011 ft 456 kts 159°
2026-05-07 20:42 54.46718 -3.15000 25009 ft 456 kts 159°
2026-05-07 20:42 54.43898 -3.12903 24747 ft 453 kts 159°
2026-05-07 20:42 54.41019 -3.10764 24054 ft 450 kts 159°
2026-05-07 20:43 54.38152 -3.08637 23363 ft 446 kts 159°
2026-05-07 20:43 54.35312 -3.06533 22642 ft 441 kts 159°
2026-05-07 20:43 54.32512 -3.04467 21979 ft 435 kts 159°
2026-05-07 20:43 54.29752 -3.02433 21332 ft 429 kts 159°
2026-05-07 20:44 54.27022 -3.00425 20707 ft 424 kts 159°
2026-05-07 20:44 54.24343 -2.98383 20064 ft 421 kts 156°
2026-05-07 20:44 54.21829 -2.95843 19508 ft 417 kts 149°
2026-05-07 20:44 54.19401 -2.93117 18983 ft 418 kts 149°
2026-05-07 20:45 54.16972 -2.90372 18421 ft 416 kts 149°
2026-05-07 20:45 54.14564 -2.87658 17826 ft 413 kts 149°
2026-05-07 20:45 54.12201 -2.85004 17253 ft 410 kts 149°
2026-05-07 20:45 54.09830 -2.82347 16692 ft 406 kts 149°
2026-05-07 20:46 54.07475 -2.79713 16159 ft 403 kts 149°
2026-05-07 20:46 54.05134 -2.77100 15628 ft 400 kts 149°
2026-05-07 20:46 54.02812 -2.74513 15106 ft 397 kts 149°
2026-05-07 20:46 54.00507 -2.71948 14590 ft 394 kts 149°
2026-05-07 20:47 53.98217 -2.69403 14074 ft 391 kts 149°
2026-05-07 20:47 53.95948 -2.66885 13525 ft 389 kts 149°
2026-05-07 20:47 53.93694 -2.64385 13004 ft 386 kts 149°
2026-05-07 20:47 53.91453 -2.61904 12483 ft 382 kts 149°
2026-05-07 20:48 53.89264 -2.59483 12181 ft 368 kts 149°
2026-05-07 20:48 53.87163 -2.57159 11900 ft 354 kts 149°
2026-05-07 20:48 53.85138 -2.54924 11621 ft 341 kts 149°
2026-05-07 20:48 53.83188 -2.52768 11379 ft 328 kts 149°
2026-05-07 20:49 53.81308 -2.50697 11147 ft 316 kts 149°
2026-05-07 20:49 53.79501 -2.48713 10848 ft 300 kts 150°
2026-05-07 20:49 53.77790 -2.46834 10275 ft 291 kts 150°
2026-05-07 20:49 53.76118 -2.45006 9890 ft 288 kts 150°
2026-05-07 20:50 53.74455 -2.43185 9499 ft 283 kts 150°
2026-05-07 20:50 53.72809 -2.41386 9051 ft 280 kts 150°
2026-05-07 20:50 53.71176 -2.39601 8568 ft 279 kts 150°
2026-05-07 20:50 53.69539 -2.37815 8052 ft 280 kts 150°
2026-05-07 20:51 53.67917 -2.36043 7737 ft 274 kts 150°
2026-05-07 20:51 53.66456 -2.34059 7527 ft 267 kts 137°
2026-05-07 20:51 53.65225 -2.31771 7230 ft 262 kts 134°
2026-05-07 20:51 53.64038 -2.29457 6885 ft 260 kts 134°
2026-05-07 20:52 53.62860 -2.27167 6541 ft 257 kts 134°
2026-05-07 20:52 53.61692 -2.24905 6173 ft 255 kts 135°
2026-05-07 20:52 53.60530 -2.22660 5809 ft 253 kts 134°
2026-05-07 20:52 53.59376 -2.20437 5499 ft 249 kts 134°
2026-05-07 20:53 53.58249 -2.18268 5280 ft 244 kts 134°
2026-05-07 20:53 53.57131 -2.16119 5068 ft 243 kts 134°
2026-05-07 20:53 53.56019 -2.13987 4852 ft 242 kts 134°
2026-05-07 20:53 53.54909 -2.11860 4635 ft 241 kts 134°
2026-05-07 20:54 53.53828 -2.09787 4538 ft 229 kts 134°
2026-05-07 20:54 53.52809 -2.07829 4454 ft 216 kts 134°
2026-05-07 20:54 53.51855 -2.06001 4375 ft 204 kts 135°
2026-05-07 20:54 53.50943 -2.04255 4304 ft 193 kts 135°
2026-05-07 20:55 53.50061 -2.02618 4212 ft 186 kts 139°
2026-05-07 20:55 53.48961 -2.01580 4047 ft 181 kts 172°
2026-05-07 20:55 53.47766 -2.01956 3821 ft 179 kts 211°
2026-05-07 20:55 53.46868 -2.03411 3664 ft 181 kts 227°
2026-05-07 20:56 53.46098 -2.05105 3528 ft 183 kts 232°
2026-05-07 20:56 53.45342 -2.06812 3260 ft 181 kts 229°
2026-05-07 20:56 53.44553 -2.08414 2978 ft 177 kts 229°
2026-05-07 20:56 53.43793 -2.10005 2718 ft 172 kts 229°
2026-05-07 20:57 53.43068 -2.11528 2495 ft 162 kts 228°
2026-05-07 20:57 53.42384 -2.12950 2280 ft 152 kts 228°
2026-05-07 20:57 53.41744 -2.14280 2073 ft 144 kts 228°
2026-05-07 20:57 53.41135 -2.15547 1887 ft 135 kts 227°
2026-05-07 20:58 53.40560 -2.16743 1730 ft 131 kts 226°
2026-05-07 20:58 53.39986 -2.17934 1523 ft 132 kts 227°
2026-05-07 20:58 53.39430 -2.19090 1359 ft 127 kts 227°
2026-05-07 20:58 53.38883 -2.20223 1186 ft 126 kts 227°
2026-05-07 20:59 53.38330 -2.21371 1013 ft 127 kts 228°
2026-05-07 20:59 53.37774 -2.22527 826 ft 129 kts 227°
2026-05-07 20:59 53.37212 -2.23692 677 ft 131 kts 228°
2026-05-07 20:59 53.36632 -2.24874 507 ft 132 kts 229°
2026-05-07 21:00 53.36044 -2.26095 299 ft 136 kts 230°
2026-05-07 21:00 53.35502 -2.27224 249 ft 107 kts 231°
2026-05-07 21:00 53.35130 -2.28003 259 ft 46 kts 232°
2026-05-07 21:00 53.34983 -2.28358 265 ft 34 kts 248°
2026-05-07 21:01 53.34944 -2.28645 267 ft 0 kts 267°
2026-05-07 21:02 53.34944 -2.28646 267 ft 0 kts 267°
2026-05-07 21:02 53.34948 -2.28689 267 ft 6 kts 287°
2026-05-07 21:02 53.34982 -2.28738 267 ft 7 kts 351°
2026-05-07 21:03 53.35036 -2.28697 266 ft 10 kts 46°
2026-05-07 21:03 53.35091 -2.28591 265 ft 14 kts 49°
2026-05-07 21:03 53.35164 -2.28442 263 ft 18 kts 53°
2026-05-07 21:03 53.35251 -2.28255 261 ft 22 kts 49°
2026-05-07 21:04 53.35366 -2.28065 259 ft 25 kts 44°
2026-05-07 21:04 53.35424 -2.27972 258 ft 2 kts 43°
2026-05-07 21:04 53.35504 -2.27915 257 ft 16 kts 12°
2026-05-07 21:04 53.35628 -2.27895 257 ft 19 kts
2026-05-07 21:05 53.35750 -2.27872 257 ft 16 kts
2026-05-07 21:05 53.35876 -2.27850 256 ft 20 kts
2026-05-07 21:05 53.36020 -2.27837 255 ft 20 kts 347°